Saint Cloud, MN

12:41 AM CST on February 07, 2016 (GMT -0600)
Saint Cloud Regional

Weather History for KSTC - July, 2013

Change the Weather History Date:

Saturday, July 27, 2013

  Actual Average Record
Temperature  
Mean Temperature 56 °F 70 °F  
Max Temperature 66 °F 82 °F 102 °F (1931)
Min Temperature 45 °F 58 °F 44 °F (1981)
Degree Days  
Heating Degree Days 9 0  
Month to date heating degree days 16 13  
Since 1 June heating degree days 103 91  
Since 1 July heating degree days 16 13  
Cooling Degree Days 0 6  
Month to date cooling degree days 215 161  
Year to date cooling degree days 325 281  
Since 1 June cooling degree days 314 256  
Growing Degree Days 6 (Base 50)    
Moisture  
Dew Point 44 °F    
Average Humidity 69    
Maximum Humidity 93    
Minimum Humidity 45    
Precipitation  
Precipitation T in 0.10 in 1.60 in (1903)
Month to date precipitation 1.36 2.90  
Year to date precipitation 19.41 15.38  
Snow  
Snow 0.00 in 0.00 in 0.00 in ()
Month to date snowfall 0.0 0.0  
Since 1 June snowfall 0.0 0.0  
Since 1 July snowfall 0.0 0.0  
Snow Depth 0.00 in    
Sea Level Pressure  
Sea Level Pressure 30.06 in    
Wind  
Wind Speed 10 mph (NNW)    
Max Wind Speed 21 mph    
Max Gust Speed 30 mph    
Visibility 10 miles    
Events      
T = Trace of Precipitation, MM = Missing Value Source: NWS Daily Summary

Daily Weather History Graph

Daily Weather History Graph

Search for Another Location

Airport or City:

Trip Planner

Search our weather history database for the weather conditions in past years. The results will help you decide how hot, cold, wet, or windy it might be!

Date:

Astronomy

Jul. 27, 2013 Rise Set
Actual Time 5:54 AM CDT 8:50 PM CDT
Civil Twilight 5:19 AM CDT 9:24 PM CDT
Nautical Twilight 4:35 AM CDT 10:09 PM CDT
Astronomical Twilight 3:42 AM CDT 11:01 PM CDT
Moon 11:16 PM CDT (7/27) 11:56 AM CDT (7/27)
Length of Visible Light 16h 05m
Length of Day
14h 55m
Waning Gibbous, 70% of the Moon is Illuminated
Jul 27
Waning Gibbous
Jul 29
Last Quarter
Aug 6
New
Aug 14
First Quarter
Aug 20
Full

Hourly Weather History & Observations

Time (CDT) Temp. Dew Point Humidity Pressure Visibility Wind Dir Wind Speed Gust Speed Precip Events Conditions
12:53 AM 48.9 °F 46.0 °F 90% 30.14 in 10.0 mi NNW 4.6 mph - N/A   Scattered Clouds
1:53 AM 48.0 °F 45.0 °F 89% 30.14 in 10.0 mi NNW 3.5 mph - N/A   Partly Cloudy
2:53 AM 46.9 °F 44.1 °F 90% 30.13 in 10.0 mi NW 6.9 mph - N/A   Clear
3:53 AM 48.0 °F 45.0 °F 89% 30.12 in 10.0 mi NNW 6.9 mph - N/A   Mostly Cloudy
4:53 AM 48.9 °F 46.0 °F 90% 30.12 in 10.0 mi NW 6.9 mph - N/A   Overcast
5:53 AM 50.0 °F 46.0 °F 86% 30.13 in 10.0 mi NW 6.9 mph - N/A   Overcast
6:53 AM 50.0 °F 45.0 °F 83% 30.12 in 10.0 mi NW 9.2 mph - N/A   Scattered Clouds
7:53 AM 54.0 °F 45.0 °F 72% 30.11 in 10.0 mi WNW 13.8 mph - N/A   Overcast
8:53 AM 57.0 °F 45.0 °F 64% 30.10 in 10.0 mi NNW 12.7 mph - N/A   Clear
9:53 AM 59.0 °F 44.1 °F 58% 30.08 in 10.0 mi NW 15.0 mph 26.5 mph N/A   Partly Cloudy
10:53 AM 57.0 °F 44.1 °F 62% 30.08 in 10.0 mi North 16.1 mph 24.2 mph N/A   Overcast
11:53 AM 59.0 °F 44.1 °F 58% 30.07 in 10.0 mi North 11.5 mph 19.6 mph 0.00 in   Mostly Cloudy
12:53 PM 61.0 °F 46.0 °F 58% 30.05 in 10.0 mi NW 8.1 mph 17.3 mph 0.00 in   Mostly Cloudy
1:53 PM 62.1 °F 43.0 °F 50% 30.03 in 10.0 mi North 15.0 mph 25.3 mph N/A   Overcast
2:53 PM 63.0 °F 44.1 °F 50% 30.01 in 10.0 mi NW 6.9 mph - 0.00 in   Overcast
3:53 PM 66.0 °F 44.1 °F 45% 30.00 in 10.0 mi NW 12.7 mph - N/A   Overcast
4:53 PM 62.1 °F 44.1 °F 52% 29.99 in 10.0 mi NNW 10.4 mph - N/A   Overcast
5:53 PM 62.1 °F 45.0 °F 53% 29.99 in 10.0 mi North 10.4 mph - N/A   Overcast
6:53 PM 60.1 °F 46.0 °F 60% 30.00 in 10.0 mi North 11.5 mph - N/A   Overcast
7:53 PM 59.0 °F 44.1 °F 58% 30.00 in 10.0 mi North 12.7 mph - N/A   Overcast
8:53 PM 57.9 °F 43.0 °F 58% 29.99 in 10.0 mi NNW 13.8 mph 21.9 mph N/A   Overcast
9:53 PM 55.9 °F 41.0 °F 57% 30.01 in 10.0 mi North 12.7 mph 18.4 mph N/A   Mostly Cloudy
10:53 PM 54.0 °F 43.0 °F 66% 30.03 in 10.0 mi NNW 9.2 mph - N/A   Overcast
11:53 PM 52.0 °F 43.0 °F 71% 30.03 in 10.0 mi NW 8.1 mph - N/A   Overcast